This demonstration page uses our WeatherBlox Daily Observations layout. Learn more.

Hourly Observations for June 27, 2018

Temp ( °F °C ) Dew Point ( °F °C ) Humidity (%) Winds ( mph kmh ) Pressure ( in mb ) Visibility ( mi km ) Precip ( " mm )
12:15 am 00:15 Clear 68 19.8 66 18.8 94 94 ESE 7 11 29.83 1010 10 16.09344 0 0
12:35 am 00:35 Clear 67 19.5 65 18.6 95 95 SE 9 15 29.83 1010 10 16.09344 0 0
12:55 am 00:55 Clear 67 19.7 65 18.6 93 93 SE 9 15 29.83 1010 10 16.09344 0 0
1:15 am 01:15 Clear 67 19.7 66 18.8 95 95 SE 8 13 29.83 1010 10 16.09344 0 0
1:35 am 01:35 Clear 68 20 66 19 94 94 SE 12 19 29.83 1010 10 16.09344 0 0
1:55 am 01:55 Clear 68 20 66 19 94 94 SE 10 17 29.83 1010 10 16.09344 0 0
2:15 am 02:15 Clear 68 20 66 19 94 94 SE 10 17 29.83 1010 10 16.09344 0 0
2:35 am 02:35 Clear 68 19.8 66 18.8 94 94 SE 10 17 29.83 1010 10 16.09344 0 0
2:55 am 02:55 Clear 67 19.5 66 18.7 95 95 SE 7 11 29.8 1009 10 16.09344 0 0
3:15 am 03:15 Clear 67 19.3 65 18.5 95 95 SE 6 9 29.8 1009 10 16.09344 0 0
3:35 am 03:35 Clear 66 18.9 65 18.4 97 97 SE 7 11 29.8 1009 10 16.09344 0 0
3:55 am 03:55 Clear 65 18.6 65 18.2 98 98 SE 6 9 29.8 1009 10 16.09344 0 0
4:15 am 04:15 Clear 65 18.3 64 18 98 98 SE 3 6 29.8 1009 10 16.09344 0 0
4:35 am 04:35 Clear 64 17.8 64 17.6 99 99 ESE 3 6 29.83 1010 10 16.09344 0 0
4:55 am 04:55 Clear 64 17.6 64 17.6 100 100 SE 6 9 29.8 1009 10 16.09344 0 0
5:15 am 05:15 Clear 64 17.7 64 17.7 100 100 SE 3 6 29.8 1009 10 16.09344 0 0
5:35 am 05:35 Clear 64 17.6 64 17.6 100 100 SSE 3 6 29.8 1009 10 16.09344 0 0
5:55 am 05:55 Clear 64 17.5 64 17.5 100 100 SE 5 7 29.77 1008 7 11.265408 0 0
6:15 am 06:15 Sunny 64 17.5 64 17.5 100 100 Calm 29.77 1008 10 16.09344 0 0
6:35 am 06:35 Sunny 64 17.5 64 17.5 100 100 Calm 29.77 1008 10 16.09344 0 0
6:55 am 06:55 Sunny 64 17.7 64 17.5 99 99 SE 5 7 29.8 1009 10 16.09344 0 0
7:15 am 07:15 Sunny 65 18.5 65 18.3 99 99 Calm 29.77 1008 10 16.09344 0 0
7:35 am 07:35 Sunny 66 19 65 18.6 98 98 ESE 5 7 29.77 1008 10 16.09344 0 0
7:55 am 07:55 Sunny 68 19.9 67 19.4 97 97 SE 5 7 29.77 1008 10 16.09344 0 0
8:15 am 08:15 Sunny 70 20.9 69 20.3 96 96 SE 6 9 29.77 1008 10 16.09344 0 0
8:35 am 08:35 Sunny 71 21.6 69 20.6 94 94 SSE 7 11 29.74 1007 10 16.09344 0 0
8:55 am 08:55 Sunny 73 22.6 71 21.4 93 93 SSE 6 9 29.77 1008 10 16.09344 0 0
9:15 am 09:15 Sunny 74 23.1 71 21.7 92 92 SSE 9 15 29.74 1007 10 16.09344 0 0
9:35 am 09:35 Sunny 75 23.8 72 22 90 90 S 9 15 29.74 1007 10 16.09344 0 0
9:55 am 09:55 Sunny 76 24.4 73 22.5 89 89 SSE 13 20 29.74 1007 10 16.09344 0 0
10:15 am 10:15 Sunny 77 25.1 73 22.9 88 88 SSE 15 24 29.68 1005 10 16.09344 0 0
10:35 am 10:35 Sunny 79 25.9 74 23.1 85 85 ESE 5 7 29.71 1006 10 16.09344 0 0
10:55 am 10:55 Mostly Cloudy 80 26.6 74 23.3 82 82 ESE 7 11 29.71 1006 10 16.09344 0 0
11:15 am 11:15 Mostly Cloudy 80 26.6 74 23.3 82 82 Calm 29.74 1007 10 16.09344 0 0
11:35 am 11:35 Partly Cloudy 81 27.4 75 23.8 81 81 N 6 9 29.74 1007 10 16.09344 0 0
11:55 am 11:55 Mostly Cloudy 82 27.5 75 23.7 80 80 NE 3 6 29.74 1007 10 16.09344 0 0
12:15 pm 12:15 Mostly Cloudy 82 27.5 75 23.7 80 80 E 8 13 29.74 1007 10 16.09344 0 0
12:35 pm 12:35 Partly Cloudy 83 28.2 75 23.8 77 77 E 9 15 29.74 1007 10 16.09344 0 0
12:55 pm 12:55 Mostly Cloudy 84 29 76 24.3 76 76 E 7 11 29.74 1007 10 16.09344 0 0
1:15 pm 13:15 Partly Cloudy 85 29.2 76 24.3 75 75 E 12 19 29.74 1007 10 16.09344 0 0
1:35 pm 13:35 Partly Cloudy 85 29.5 76 24.4 74 74 ESE 9 15 29.71 1006 10 16.09344 0 0
1:55 pm 13:55 Mostly Cloudy 84 29.1 75 24.1 74 74 ESE 9 15 29.68 1005 10 16.09344 0 0
2:15 pm 14:15 Partly Cloudy 85 29.7 76 24.4 73 73 ESE 9 15 29.68 1005 10 16.09344 0 0
2:35 pm 14:35 Sunny 86 30 76 24.5 72 72 ESE 10 17 29.68 1005 10 16.09344 0 0
2:55 pm 14:55 Partly Cloudy 87 30.3 76 24.4 71 71 SE 10 17 29.68 1005 10 16.09344 0 0
3:15 pm 15:15 Partly Cloudy 86 30.1 76 24.5 72 72 ESE 8 13 29.68 1005 10 16.09344 0 0
3:35 pm 15:35 Partly Cloudy 87 30.5 76 24.7 71 71 ESE 8 13 29.68 1005 10 16.09344 0 0
3:55 pm 15:55 Sunny 87 30.8 77 24.9 71 71 ESE 8 13 29.68 1005 10 16.09344 0 0
4:15 pm 16:15 Sunny 88 31.3 77 25.2 70 70 E 9 15 29.68 1005 10 16.09344 0 0
4:35 pm 16:35 Sunny 89 31.4 78 25.3 70 70 SE 8 13 29.68 1005 10 16.09344 0 0
4:55 pm 16:55 Sunny 89 31.4 77 25.2 70 70 ESE 9 15 29.68 1005 10 16.09344 0 0
5:15 pm 17:15 Sunny 90 32.2 76 24.5 64 64 SE 9 15 29.68 1005 10 16.09344 0 0
5:35 pm 17:35 Sunny 89 31.8 76 24.7 66 66 SE 8 13 29.65 1004 10 16.09344 0 0
5:55 pm 17:55 Sunny 90 32 78 25.4 68 68 ESE 8 13 29.65 1004 10 16.09344 0 0
6:15 pm 18:15 Sunny 89 31.7 77 24.9 67 67 ESE 8 13 29.65 1004 10 16.09344 0 0
6:35 pm 18:35 Sunny 89 31.5 78 25.3 70 70 SE 7 11 29.65 1004 10 16.09344 0 0
6:55 pm 18:55 Sunny 89 31.5 78 25.3 70 70 ESE 7 11 29.65 1004 10 16.09344 0 0
7:15 pm 19:15 Sunny 88 31 78 25.7 73 73 E 7 11 29.65 1004 10 16.09344 0 0
7:35 pm 19:35 Sunny 87 30.6 79 25.9 76 76 E 7 11 29.65 1004 10 16.09344 0 0
7:55 pm 19:55 Sunny 86 30 79 26 79 79 E 7 11 29.65 1004 10 16.09344 0 0
8:15 pm 20:15 Sunny 85 29.4 79 26.1 82 82 E 7 11 29.65 1004 10 16.09344 0 0
8:35 pm 20:35 Sunny 84 28.7 79 26.1 86 86 E 7 11 29.65 1004 10 16.09344 0 0
8:55 pm 20:55 Sunny 82 28 79 26.1 89 89 E 7 11 29.68 1005 10 16.09344 0 0
9:15 pm 21:15 Clear 81 27.3 79 26 93 93 E 9 15 29.68 1005 10 16.09344 0 0
9:35 pm 21:35 Clear 81 27 78 25.6 92 92 E 9 15 29.71 1006 10 16.09344 0 0
9:55 pm 21:55 Clear 80 26.5 78 25.5 94 94 E 10 17 29.71 1006 10 16.09344 0 0
10:15 pm 22:15 Clear 79 26.2 78 25.3 95 95 E 13 20 29.71 1006 10 16.09344 0 0
10:35 pm 22:35 Clear 79 25.9 77 25.2 96 96 E 13 20 29.71 1006 10 16.09344 0 0
10:55 pm 22:55 Clear 78 25.8 77 25.2 97 97 E 10 17 29.71 1006 10 16.09344 0 0
11:15 pm 23:15 Clear 78 25.5 77 25 97 97 E 9 15 29.77 1008 10 16.09344 0 0
11:35 pm 23:35 Clear 77 25.1 76 24.7 98 98 E 8 13 29.77 1008 7 11.265408 0 0
11:55 pm 23:55 Clear 77 25 76 24.6 98 98 E 10 17 29.77 1008 7 11.265408 0 0

Powered by AerisWeather